Rocky Mount, NC

10:23 AM EDT on March 28, 2017 (GMT -0400)
Rocky Mount-Wilson Regional

Weather History for KRWI - January, 2012

Change the Weather History Date:

Sunday, January 29, 2012

  Actual Average Record
Temperature  
Mean Temperature 44 °F -  
Max Temperature 53 °F 53 °F 78 °F (1970)
Min Temperature 35 °F 29 °F 10 °F (2014)
Degree Days  
Heating Degree Days 21    
Moisture  
Dew Point 20 °F    
Average Humidity 41    
Maximum Humidity 64    
Minimum Humidity 21    
Precipitation  
Precipitation 0.00 in - - ()
Sea Level Pressure  
Sea Level Pressure 30.28 in    
Wind  
Wind Speed 7 mph (WNW)    
Max Wind Speed 10 mph    
Max Gust Speed 16 mph    
Visibility 10 miles    
Events      
Averages and records for this station are not official NWS values.
T = Trace of Precipitation, MM = Missing Value Source: NWS Daily Summary

Daily Weather History Graph

Daily Weather History Graph

Search for Another Location

Airport or City:

Trip Planner

Search our weather history database for the weather conditions in past years. The results will help you decide how hot, cold, wet, or windy it might be!

Date:

Astronomy

Jan. 29, 2012 Rise Set
Actual Time 7:14 AM EST 5:35 PM EST
Civil Twilight 6:47 AM EST 6:02 PM EST
Nautical Twilight 6:16 AM EST 6:33 PM EST
Astronomical Twilight 5:46 AM EST 7:03 PM EST
Moon 10:19 AM EST (1/29) No Moon Set
Length of Visible Light 11h 14m
Length of Day
10h 20m
Waxing Crescent, 36% of the Moon is Illuminated
Jan 29
Waxing Crescent
Jan 30
First Quarter
Feb 7
Full
Feb 14
Last Quarter
Feb 21
New

Hourly Weather History & Observations

Time (EST) Temp. Windchill Dew Point Humidity Pressure Visibility Wind Dir Wind Speed Gust Speed Precip Events Conditions
12:53 AM 46.9 °F - 27.0 °F 46% 30.21 in 10.0 mi NNW 9.2 mph - N/A   Overcast
1:53 AM 45.0 °F 39.7 °F 25.0 °F 46% 30.22 in 10.0 mi NNW 10.4 mph - N/A   Clear
2:53 AM 44.1 °F 40.1 °F 25.0 °F 47% 30.24 in 10.0 mi NNW 6.9 mph - N/A   Overcast
3:53 AM 44.1 °F 38.6 °F 24.1 °F 45% 30.27 in 10.0 mi NNW 10.4 mph - N/A   Overcast
4:53 AM 44.1 °F 39.5 °F 21.9 °F 42% 30.29 in 10.0 mi NNW 8.1 mph - N/A   Overcast
5:53 AM 41.0 °F 37.1 °F 21.0 °F 45% 30.29 in 10.0 mi NNW 5.8 mph - N/A   Mostly Cloudy
6:53 AM 39.0 °F 34.8 °F 19.9 °F 46% 30.31 in 10.0 mi NNW 5.8 mph - N/A   Partly Cloudy
7:53 AM 39.0 °F 34.0 °F 19.9 °F 46% 30.33 in 10.0 mi NNW 6.9 mph - N/A   Clear
8:53 AM 42.1 °F 36.1 °F 19.0 °F 40% 30.35 in 10.0 mi NNW 10.4 mph 16.1 mph N/A   Clear
9:53 AM 45.0 °F 40.6 °F 18.0 °F 34% 30.36 in 10.0 mi NNW 8.1 mph - N/A   Clear
10:53 AM 48.0 °F - 19.0 °F 32% 30.38 in 10.0 mi North 3.5 mph - N/A   Clear
11:53 AM 48.2 °F - 15.8 °F 27% 30.35 in 10.0 mi Calm Calm - N/A   Clear
12:53 PM 50.0 °F - 18.0 °F 28% 30.32 in 10.0 mi Variable 4.6 mph - N/A   Clear
1:53 PM 51.1 °F - 16.0 °F 25% 30.28 in 10.0 mi SW 5.8 mph - N/A   Clear
2:53 PM 52.0 °F - 14.0 °F 22% 30.26 in 10.0 mi West 6.9 mph - N/A   Clear
3:53 PM 53.1 °F - 14.0 °F 21% 30.25 in 10.0 mi SSW 8.1 mph - N/A   Clear
4:53 PM 51.1 °F - 12.9 °F 22% 30.24 in 10.0 mi SW 5.8 mph - N/A   Clear
5:53 PM 43.0 °F 41.3 °F 21.0 °F 42% 30.25 in 10.0 mi SSW 3.5 mph - N/A   Clear
6:53 PM 37.9 °F - 23.0 °F 55% 30.27 in 10.0 mi Calm Calm - N/A   Clear
7:53 PM 35.1 °F 32.2 °F 24.1 °F 64% 30.28 in 10.0 mi South 3.5 mph - N/A   Clear
8:53 PM 35.1 °F 30.1 °F 21.9 °F 59% 30.27 in 10.0 mi South 5.8 mph - N/A   Clear
9:53 PM 37.9 °F 33.5 °F 19.9 °F 48% 30.27 in 10.0 mi SSW 5.8 mph - N/A   Clear
10:53 PM 39.9 °F 34.5 °F 19.9 °F 45% 30.27 in 10.0 mi SSW 8.1 mph - N/A   Clear
11:53 PM 37.9 °F 33.5 °F 19.0 °F 47% 30.26 in 10.0 mi SW 5.8 mph - N/A   Clear